Regional Weather Roundup
Issued by NWS Huntsville, AL

Home | Current Version | Previous Version | Text Only | Print | Product List | Glossary On
Versions: 1 2 3 4 5 6 7 8 9 10 11 12 13 14 15 16 17 18 19 20 21 22 23 24 25 26 27 28 29 30 31 32 33 34 35 36 37 38 39 40 41 42 43 44 45 46 47 48 49 50
000
ASUS44 KHUN 220310
RWRHUN

WEATHER ROUNDUP FOR THE TENNESSEE VALLEY
NATIONAL WEATHER SERVICE HUNTSVILLE AL
1000 PM CDT SAT APR 21 2018

ALZ001>004-220400-
NORTHWEST ALABAMA

CITY           SKY/WX    TMP DP  RH WIND       PRES   REMARKS
SHOALS AIRPORT MOCLDY    65  47  52 E5        30.16F
$$

ALZ005>007-016-220400-
NORTH CENTRAL ALABAMA

CITY           SKY/WX    TMP DP  RH WIND       PRES   REMARKS
DECATUR AP     CLOUDY    67  48  50 SE6       30.19R
HUNTSVILLE AP  CLOUDY    66  51  58 SE7       30.18R
MERIDIANVILLE  CLOUDY    61  49  65 CALM      30.20R VSB 1/4
REDSTONE ARSN  CLOUDY    66  46  48 S5        30.18R
VINEMONT AP    CLOUDY    65  46  50 CALM      30.21S
$$

ALZ008>010-220400-
NORTHEAST ALABAMA

CITY           SKY/WX    TMP DP  RH WIND       PRES   REMARKS
ALBERTVILLE    CLOUDY    64  50  59 E5        30.19S
FORT PAYNE     MOCLDY    64  37  36 SE3       30.21S
SCOTTSBORO AP  CLOUDY    63  48  59 CALM      30.21S
$$

TNZ076-096-097-220400-
SOUTHEASTERN MIDDLE TENNESSEE

CITY           SKY/WX    TMP DP  RH WIND       PRES   REMARKS
TULLAHOMA      CLOUDY    64  37  36 E6        30.21S
WINCHESTER     CLOUDY    61  41  48 E5        30.22R
$$

...SURROUNDING SITES...

CITY           SKY/WX    TMP DP  RH WIND       PRES   REMARKS
ATLANTA        MOCLDY    63  40  42 E8        30.25F
ANNISTON       FAIR      65  43  44 NE10      30.20F
BIRMINGHAM     CLOUDY    68  45  43 SE9       30.20R
CHATTANOOGA    MOCLDY    64  37  36 S5        30.24S
CORINTH        FAIR      64  48  55 CALM      30.12R
DALTON         MOCLDY    57  43  58 CALM      30.26F
GADSDEN        CLOUDY    66  47  50 VRB5      30.21R
GOLDEN TRNGL   FAIR      69  56  62 SE8       30.12R
HALEYVILLE     CLOUDY    65  51  60 SE3       30.18F
JACKSON TN     FAIR      68  41  37 E3        30.13R
MEMPHIS        CLOUDY    69  49  48 E13       30.06F
NASHVILLE      MOCLDY    60  38  43 CALM      30.21R
ROME           CLOUDY    62  46  55 N7        30.22F
SAVANNAH       PTCLDY    66  45  45 E8        30.13F
SELMER         CLEAR     66  43  42 E3        30.13S
TUPELO         MOCLDY    69  49  48 E6        30.12R
TUSCALOOSA     CLOUDY    70  53  54 E3        30.14R
$$

...GULF COAST WEATHER...

CITY           SKY/WX    TMP DP  RH WIND       PRES   REMARKS
GULFPORT       CLOUDY    69  65  86 E12       30.06F
PASCAGOULA     FAIR      66  62  87 SE3       30.08F
MOBILE         FAIR      65  62  90 SE6       30.09F
GULF SHORES      N/A     59  59 100 SW5       30.09F FOG
PENSACOLA      FAIR      67  62  84 E5        30.10
DESTIN         CLOUDY    72  63  73 NE3       30.12R
PANAMA CITY    FAIR      71  64  80 E6        30.11R
APPALACHICOLA  FAIR      72  66  81 E13G23    30.10F
$$




USA.gov is the U.S. government's official web portal to all federal, state and local government web resources and services.